KK7AZD-13 Weather Reports


Display with metric or nautical units.
time (UTC)temp
F
wind
direction
speed
MPH
gust
MPH
rain 1hr
in
rain 24hr
in
rain mn
in
humidity
%
barometer
mb
20260506034611 60 31 0.0 0.0 0.00 0.00 0.00 63 1015.7
20260506033108 62 341 3.0 3.0 0.00 0.00 0.00 58 1015.2
20260506031605 63 319 2.0 2.0 0.00 0.00 0.00 58 1014.9
20260506030103 64 324 5.0 7.0 0.00 0.00 0.00 54 1014.9
20260506024559 65 299 7.0 8.0 0.00 0.00 0.00 53 1014.5
20260506023055 66 264 7.0 8.0 0.00 0.00 0.00 53 1014.5
20260506021553 67 40 6.0 7.0 0.00 0.00 0.00 53 1014.0
20260506020050 68 9 4.0 5.0 0.00 0.00 0.00 52 1013.9
20260506014548 68 269 5.0 7.0 0.00 0.00 0.00 53 1013.9
20260506013044 69 309 9.0 11.0 0.00 0.00 0.00 51 1013.7
20260506011540 69 271 7.0 10.0 0.00 0.00 0.00 50 1013.8
20260506010038 69 324 9.0 13.0 0.00 0.00 0.00 49 1013.3
20260506004534 70 299 5.0 7.0 0.00 0.00 0.00 48 1013.6
20260506003029 70 260 7.0 8.0 0.00 0.00 0.00 49 1013.2
20260506001524 69 307 8.0 10.0 0.00 0.00 0.00 50 1013.5
20260506000022 69 291 6.0 7.0 0.00 0.00 0.00 51 1013.2
20260505234519 70 301 3.0 3.0 0.00 0.00 0.00 48 1013.2
20260505233017 70 308 5.0 7.0 0.00 0.00 0.00 48 1013.3
20260505231514 72 331 3.0 5.0 0.00 0.00 0.00 44 1013.5
20260505230012 70 311 5.0 8.0 0.00 0.00 0.00 46 1013.3
20260505224508 71 324 8.0 9.0 0.00 0.00 0.00 42 1013.1
20260505223004 72 285 7.0 9.0 0.00 0.00 0.00 35 1013.0
20260505221459 71 307 5.0 7.0 0.00 0.00 0.00 42 1013.0
20260505215956 71 339 6.0 7.0 0.00 0.00 0.00 40 1013.2
20260505214455 71 270 7.0 8.0 0.00 0.00 0.00 37 1013.3
20260505212952 71 280 6.0 7.0 0.00 0.00 0.00 41 1013.3
20260505211449 70 287 2.0 3.0 0.00 0.00 0.00 40 1013.3
20260505205944 72 255 5.0 7.0 0.00 0.00 0.00 39 1013.5
20260505204443 73 278 7.0 9.0 0.00 0.00 0.00 34 1013.2
20260505202938 71 266 5.0 7.0 0.00 0.00 0.00 37 1013.5
20260505201434 71 304 5.0 6.0 0.00 0.00 0.00 37 1013.5
20260505195930 69 270 6.0 7.0 0.00 0.00 0.00 37 1013.6
20260505194428 69 298 5.0 6.0 0.00 0.00 0.00 46 1013.5
20260505192924 67 274 7.0 8.0 0.00 0.00 0.00 40 1013.7
20260505191424 68 295 8.0 9.0 0.00 0.00 0.00 39 1013.7
20260505185922 68 311 10.0 10.0 0.00 0.00 0.00 38 1013.6
20260505184419 66 232 4.0 6.0 0.00 0.00 0.00 41 1013.9
20260505182915 65 277 7.0 9.0 0.00 0.00 0.00 42 1013.8
20260505181412 64 283 8.0 9.0 0.00 0.00 0.00 40 1013.5
20260505175907 64 295 4.0 6.0 0.00 0.00 0.00 42 1013.7
20260505174404 64 273 5.0 7.0 0.00 0.00 0.00 42 1013.9
20260505172859 62 295 8.0 9.0 0.00 0.00 0.00 46 1013.9
20260505171359 62 270 3.0 5.0 0.00 0.00 0.00 50 1013.9
20260505165854 63 26 3.0 3.0 0.00 0.00 0.00 35 1013.9
20260505164354 61 324 3.0 3.0 0.00 0.00 0.00 50 1013.9
20260505162850 62 51 3.0 5.0 0.00 0.00 0.00 36 1013.8
20260505161345 60 43 1.0 2.0 0.00 0.00 0.00 40 1014.0
20260505152834 57 23 2.0 2.0 0.00 0.00 0.00 45 1013.9
20260505151334 55 64 1.0 2.0 0.00 0.00 0.00 49 1013.6
20260505124308 40 51 0.0 0.0 0.00 0.00 0.00 76 1012.8
20260505122808 40 47 0.0 0.0 0.00 0.00 0.00 76 1012.6
20260505121305 40 37 0.0 0.0 0.00 0.00 0.00 76 1012.3
20260505115802 40 46 0.0 0.0 0.00 0.00 0.00 78 1012.3
20260505114259 38 38 0.0 0.0 0.00 0.00 0.00 82 1012.2
20260505112800 42 51 2.0 2.0 0.00 0.00 0.00 76 1012.3
20260505111300 42 38 1.0 1.0 0.00 0.00 0.00 73 1012.2
20260505101246 45 22 0.0 0.0 0.00 0.00 0.00 68 1012.0
20260505095747 45 336 1.0 2.0 0.00 0.00 0.00 68 1012.0
20260505094243 49 20 2.0 2.0 0.00 0.00 0.00 61 1012.1
20260505092739 50 9 7.0 8.0 0.00 0.00 0.00 58 1011.9
20260505091239 51 11 6.0 6.0 0.00 0.00 0.00 58 1012.1
20260505085737 50 5 6.0 7.0 0.00 0.00 0.00 59 1012.2
20260505084237 51 7 6.0 7.0 0.00 0.00 0.00 58 1012.1
20260505082732 52 15 6.0 7.0 0.00 0.00 0.00 55 1011.9
20260505081229 51 16 7.0 8.0 0.00 0.00 0.00 56 1012.0
20260505075728 51 13 6.0 6.0 0.00 0.00 0.00 59 1011.9
20260505074226 51 26 3.0 3.0 0.00 0.00 0.00 60 1011.9
20260505072723 51 20 4.0 5.0 0.00 0.00 0.00 60 1012.0
20260505071218 51 16 5.0 6.0 0.00 0.00 0.00 60 1011.9
20260505065714 51 13 5.0 6.0 0.00 0.00 0.00 61 1011.9
20260505064212 51 24 3.0 3.0 0.00 0.00 0.00 58 1011.8
20260505062707 54 18 3.0 3.0 0.00 0.00 0.00 53 1011.9
20260505061206 55 18 2.0 2.0 0.00 0.00 0.00 52 1011.7
20260505055700 53 24 0.0 1.0 0.00 0.00 0.00 55 1011.8
20260505054158 54 349 2.0 2.0 0.00 0.00 0.00 52 1011.7
20260505052655 53 3 2.0 2.0 0.00 0.00 0.00 56 1011.4
20260505051153 58 19 3.0 3.0 0.00 0.00 0.00 47 1011.5
20260505041146 60 12 3.0 5.0 0.00 0.00 0.00 53 1010.6
20260505035642 61 1 3.0 5.0 0.00 0.00 0.00 57 1010.4